Regional Weather Roundup
Issued by NWS Sioux Falls, SD

Home | Current Version | Previous Version | Graphics & Text | Print | Product List | Glossary On
Versions: 1 2 3 4 5 6 7 8 9 10 11 12 13 14 15 16 17 18 19 20 21 22 23 24 25 26 27 28 29 30 31 32 33 34 35 36 37 38 39 40 41 42 43 44 45 46 47 48 49 50
000
ASUS43 KFSD 301502
RWRFSD

WEATHER ROUNDUP FOR SE SOUTH DAKOTA/SW MINNESOTA/NW IOWA
NATIONAL WEATHER SERVICE SIOUX FALLS SD
900 AM CST FRI JAN 30 2015

NOTE: "FAIR" INDICATES FEW OR NO CLOUDS BELOW 12,000 FEET WITH NO
SIGNIFICANT WEATHER AND OR OBSTRUCTIONS TO VISIBILITY.


SDZ038>040-050-052>070-301600-
SOUTHEAST SOUTH DAKOTA

CITY           SKY/WX    TMP DP  RH WIND       PRES   REMARKS
CHAMBERLAIN    NOT AVBL
HURON          CLEAR     20  17  88 SE14G23   30.35F WCI   7
MADISON        FAIR      18  18 100 S14       30.40F WCI   4
MITCHELL       CLEAR     22  19  89 SE14      30.41F WCI   9
SIOUX FALLS    MOSUNNY   21  18  88 S10       30.45F WCI  10
WINNER         FAIR      33  21  61 S17G24    30.25F WCI  22
YANKTON        MOSUNNY   19  16  86 SE7       30.46F WCI  10
$$

MNZ071-072-080-081-089-090-097-098-301600-
SOUTHWEST MINNESOTA

CITY           SKY/WX    TMP DP  RH WIND       PRES   REMARKS
FAIRMONT       SUNNY     16   9  73 S6        30.49R WCI   7
JACKSON        SUNNY     16  12  86 S7        30.47S WCI   6
LUVERNE        CLOUDY    23  19  86 S15       30.47S WCI  10
MARSHALL       CLOUDY    19  14  79 SW8       30.45F WCI   9
MONTEVIDEO     CLOUDY    16  12  86 S5        30.47F WCI   9
PIPESTONE      CLOUDY    21  18  86 SW13      30.42F WCI   9
REDWOOD FALLS  PTSUNNY   14   9  80 S5        30.49F WCI   6
TRACY          CLOUDY    19  16  90 SW15      30.45F WCI   5
WINDOM         SUNNY     16  12  86 S7        30.46S WCI   6
WORTHINGTON    CLOUDY    16  12  86 S9        30.46F WCI   4
$$

IAZ001>003-012>014-020>022-031-032-NEZ013-014-SDZ071-301600-
NORTHWEST IOWA

CITY           SKY/WX    TMP DP  RH WIND       PRES   REMARKS
ESTHERVILLE    SUNNY     14  11  87 S7        30.49S WCI   4
SIOUX CITY     PTSUNNY   21  17  84 E7        30.52S WCI  12
SPENCER        SUNNY     17  13  84 S9        30.50R WCI   6
$$

ABBREVIATIONS USED IN REMARKS
   TC - TEMPERATURE IN CELSIUS
  WCI - WIND CHILL INDEX
   HX - HEAT INDEX
  VSB - VISIBILITY



USA.gov is the U.S. government's official web portal to all federal, state and local government web resources and services.